Showing default

STRIX-4, 60352

Orbit data source: Space-Track

STRIX-4, 60352 is a payload satellite owned by Synspective (JP) in LEO that was launched on Fri, 02 Aug 2024 UTC via an ELECTRON launch vehicle from the Rocket Lab Launch Complex (RLLC). Payload-class satellites include a variety of spacecraft equipped with specific instruments for various scientific and technological missions. These include communications satellites like Starlink; space stations such as the ISS; scientific satellites like the Hubble; Earth observation satellites from companies like Planet Labs, Umbra, and HawkEye 360; GPS; miniature CubeSats for education and research; and military/defense satellites.

Loading next visibility...
Identifier
60352, 2024-137A
Orbit
LEO
Country
Flag of JPJP / JPN
Related business
Manufacturer
Synspective
Mission
Operational Commercial Radar Imaging
Bus & Motor
STRIX, Unknown motor
Mass
150 kg wet, 150 kg dry
Launch date (UTC)
2024-08-02 (2 years ago)
Launch vehicle
ELECTRON
Launch site
Rocket Lab Launch Complex (RLLC)
Object type
Payload
Rocket body
Debris
Shape & HBR
Box + 2 Pan, 1.0 m
Radar Cross Section
1.052 m², Medium (>0.1 m² and < 1m²)

Expand to show TLE details & history
Last TLE update: 5 hours ago

TLE from 5 hours ago
0 STRIX-4
1 60352U 24137A   26038.13468806  .00028332  00000-0  10224-2 0  9997
2 60352  43.0146 302.3519 0016802 172.1264 187.9855 15.27861229 84096
Epoch: 2026-02-07T03:13Z
TLE epoch observation values (Epoch: 2026-02-07T03:13:57.048Z)
Latitude
0.00002°
Longitude
116.60166°
Altitude
493.398 km
Speed
7.614 km/s
True Right ascension
20h 09m 24s
True Declination
0° 00' 00"
Sunlit
Object was in daylight at epoch
Visualization orbit readout
Latitude
Unknown
Longitude
Unknown
Altitude
Unknown
Speed
Unknown
Apparent Right ascension
Unknown
Apparent Declination
Unknown
Sunlit
N/A
Visualization observer readout
Local Sidereal Time
10:03:47
Azimuth
Unknown
Elevation
Unknown
Doppler factor
Unknown
Orbital elements
Apogee altitude
495.68 km
Perigee altitude
472.62 km
Semi-major axis
6,862.287 km
Eccentricity
0.00168
Inclination
43.0146°
RAAN
302.3519°
Arg. of periapsis
172.1264°
True anomaly
187.95881°
Mean anomaly
187.9855°
Eccentric anomaly
187.97215°
Mean motion
3.81803 °/min
Orbital period
94.29 mins
BSTAR
0.0010224
Loading maneuver chart data...
Computing Atmospheric mass density...
Loading historical data...
Loading historical data...
Loading historical data...
Loading historical data...
Loading historical data...
Loading historical data...
Loading historical data...
Other satellites on launch #137 in the year 2024 (2024-08-02 UTC)

Documentation

Showing up to 5 results
|